Terminal Aerodrome Forecast
Issued by NWS

Home | Current Version | Previous Version | Text Only | Print | Product List | Glossary Off
Versions: 1 2 3 4 5 6 7 8 9 10 11 12 13

000
FTUS45 KGGW 202300
TAFSDY
TAF
KSDY 202320Z 2100/2124 28010KT P6SM BKN100
     FM211200 VRB06KT P6SM BKN130
     FM212100 33008KT P6SM BKN120
      AMD LTD TO CLD VIS AND WIND=

USA.gov is the U.S. government's official web portal to all federal, state and local government web resources and services.